When you browse on this site, cookies collect data to enhance your experience and personalize the content and advertising you see.
Visit our Privacy Policy to learn more. By continuing to use the site, you agree to this use of cookies and data.

Hourly Weather Jalalabad

Today, 4 August, Tuesday

Time Temperature Precipitation Wind Pressure Humidity
00:00 +35°C° 0.6 mm 1 mps 700 mmHg 52%
01:00 +35°C° 0.6 mm 2 mps 700 mmHg 55%
02:00 +34°C° 0.6 mm 2 mps 700 mmHg 58%
03:00 +34°C° 0.4 mm 2 mps 700 mmHg 59%
04:00 +33°C° 0.4 mm 1 mps 700 mmHg 61%
05:00 +30°C° 0 mm 0 mps 700 mmHg 65%
06:00 +32°C° 0.3 mm 1 mps 701 mmHg 63%
07:00 +33°C° 0.3 mm 1 mps 701 mmHg 61%
08:00 +33°C° 0.3 mm 1 mps 701 mmHg 59%
09:00 +34°C° 0.1 mm 1 mps 701 mmHg 54%
10:00 +35°C° 0.1 mm 1 mps 701 mmHg 48%
11:00 +37°C° 0 mm 2 mps 700 mmHg 43%
12:00 +38°C° 0 mm 2 mps 700 mmHg 37%
13:00 +40°C° 0 mm 2 mps 700 mmHg 32%
14:00 +41°C° 0 mm 2 mps 700 mmHg 27%
15:00 +41°C° 0 mm 2 mps 700 mmHg 26%
16:00 +41°C° 0 mm 2 mps 699 mmHg 26%
17:00 +41°C° 0 mm 2 mps 699 mmHg 25%
18:00 +40°C° 0 mm 2 mps 700 mmHg 29%
19:00 +39°C° 0 mm 3 mps 700 mmHg 33%
20:00 +39°C° 0 mm 3 mps 700 mmHg 37%
21:00 +38°C° 0 mm 2 mps 700 mmHg 40%
22:00 +37°C° 0 mm 2 mps 701 mmHg 43%
23:00 +36°C° 0 mm 1 mps 701 mmHg 45%

Tomorrow, 5 August, Wednesday

Time Temperature Precipitation Wind Pressure Humidity
00:00 +35°C° 0 mm 1 mps 701 mmHg 46%
01:00 +35°C° 0 mm 1 mps 701 mmHg 47%
02:00 +34°C° 0 mm 1 mps 701 mmHg 48%
03:00 +34°C° 0 mm 1 mps 701 mmHg 44%
04:00 +33°C° 0 mm 1 mps 701 mmHg 41%
05:00 +34°C° 0 mm 2 mps 702 mmHg 37%
06:00 +35°C° 0 mm 2 mps 702 mmHg 31%
07:00 +36°C° 0 mm 2 mps 702 mmHg 25%
08:00 +37°C° 0 mm 2 mps 702 mmHg 19%
09:00 +38°C° 0 mm 2 mps 702 mmHg 17%
10:00 +39°C° 0 mm 2 mps 702 mmHg 16%
11:00 +40°C° 0 mm 2 mps 702 mmHg 14%
12:00 +40°C° 0 mm 2 mps 702 mmHg 13%
13:00 +41°C° 0 mm 1 mps 702 mmHg 13%
14:00 +42°C° 0 mm 1 mps 702 mmHg 12%
15:00 +43°C° 0 mm 1 mps 702 mmHg 12%
16:00 +43°C° 0 mm 1 mps 702 mmHg 11%
17:00 +43°C° 0 mm 2 mps 701 mmHg 11%
18:00 +42°C° 0 mm 1 mps 702 mmHg 15%
19:00 +41°C° 0 mm 1 mps 702 mmHg 18%
20:00 +40°C° 0 mm 1 mps 702 mmHg 22%
21:00 +39°C° 0 mm 1 mps 703 mmHg 24%
22:00 +39°C° 0 mm 1 mps 703 mmHg 26%
23:00 +37°C° 0 mm 1 mps 703 mmHg 28%

Day after tomorrow, 6 August, Thursday

Time Temperature Precipitation Wind Pressure Humidity
00:00 +36°C° 0 mm 1 mps 703 mmHg 29%
01:00 +36°C° 0 mm 1 mps 703 mmHg 31%
02:00 +35°C° 0 mm 1 mps 703 mmHg 32%
03:00 +34°C° 0 mm 1 mps 703 mmHg 31%
04:00 +34°C° 0 mm 1 mps 703 mmHg 31%
05:00 +33°C° 0 mm 1 mps 703 mmHg 30%
06:00 +35°C° 0 mm 1 mps 704 mmHg 26%
07:00 +36°C° 0 mm 1 mps 704 mmHg 23%
08:00 +37°C° 0 mm 1 mps 704 mmHg 19%
09:00 +39°C° 0 mm 1 mps 705 mmHg 18%
10:00 +40°C° 0 mm 1 mps 705 mmHg 18%
11:00 +41°C° 0 mm 1 mps 705 mmHg 18%
12:00 +42°C° 0 mm 1 mps 704 mmHg 17%
13:00 +43°C° 0 mm 1 mps 704 mmHg 17%
14:00 +43°C° 0 mm 2 mps 704 mmHg 16%
15:00 +44°C° 0 mm 1 mps 703 mmHg 16%
16:00 +44°C° 0 mm 1 mps 703 mmHg 17%
17:00 +44°C° 0 mm 1 mps 703 mmHg 17%
18:00 +43°C° 0 mm 1 mps 703 mmHg 20%
19:00 +42°C° 0 mm 1 mps 703 mmHg 23%
20:00 +41°C° 0 mm 1 mps 703 mmHg 26%
21:00 +41°C° 0 mm 1 mps 703 mmHg 28%
22:00 +40°C° 0 mm 1 mps 703 mmHg 31%
23:00 +39°C° 0 mm 1 mps 704 mmHg 33%

7 August, Friday

Time Temperature Precipitation Wind Pressure Humidity
00:00 +39°C° 0 mm 1 mps 704 mmHg 34%
01:00 +37°C° 0 mm 1 mps 703 mmHg 36%
02:00 +37°C° 0 mm 1 mps 703 mmHg 37%
03:00 +36°C° 0 mm 1 mps 703 mmHg 38%
04:00 +36°C° 0 mm 1 mps 703 mmHg 39%
05:00 +35°C° 0 mm 1 mps 703 mmHg 40%
06:00 +37°C° 0 mm 2 mps 704 mmHg 38%
07:00 +38°C° 0 mm 2 mps 704 mmHg 36%
08:00 +39°C° 0 mm 3 mps 705 mmHg 34%
09:00 +39°C° 0 mm 3 mps 705 mmHg 33%
10:00 +40°C° 0 mm 3 mps 705 mmHg 31%
11:00 +42°C° 0 mm 4 mps 705 mmHg 30%
12:00 +43°C° 0 mm 4 mps 705 mmHg 30%
13:00 +43°C° 0 mm 4 mps 705 mmHg 30%
14:00 +45°C° 0 mm 5 mps 704 mmHg 30%
15:00 +44°C° 0 mm 4 mps 704 mmHg 29%
16:00 +44°C° 0 mm 4 mps 704 mmHg 28%
17:00 +44°C° 0 mm 3 mps 703 mmHg 27%
18:00 +43°C° 0 mm 4 mps 703 mmHg 30%
19:00 +42°C° 0 mm 4 mps 703 mmHg 33%
20:00 +42°C° 0 mm 4 mps 704 mmHg 35%
21:00 +41°C° 0 mm 4 mps 704 mmHg 40%
22:00 +39°C° 0 mm 3 mps 704 mmHg 44%
23:00 +38°C° 0 mm 3 mps 704 mmHg 49%

8 August, Saturday

Time Temperature Precipitation Wind Pressure Humidity
00:00 +37°C° 0 mm 3 mps 704 mmHg 51%
01:00 +37°C° 0 mm 2 mps 704 mmHg 52%
02:00 +37°C° 0 mm 2 mps 703 mmHg 54%
03:00 +35°C° 0.1 mm 1 mps 703 mmHg 55%
04:00 +35°C° 0.1 mm 1 mps 703 mmHg 57%
05:00 +35°C° 0.1 mm 1 mps 703 mmHg 58%
06:00 +35°C° 0 mm 1 mps 703 mmHg 57%
07:00 +36°C° 0 mm 2 mps 703 mmHg 55%
08:00 +36°C° 0 mm 2 mps 703 mmHg 54%
09:00 +37°C° 0 mm 2 mps 703 mmHg 50%
10:00 +38°C° 0 mm 2 mps 703 mmHg 47%
11:00 +39°C° 0 mm 2 mps 703 mmHg 44%
12:00 +40°C° 0 mm 2 mps 702 mmHg 40%
13:00 +42°C° 0 mm 3 mps 702 mmHg 36%
14:00 +43°C° 0 mm 3 mps 701 mmHg 33%
15:00 +44°C° 0 mm 3 mps 701 mmHg 31%
16:00 +44°C° 0 mm 3 mps 701 mmHg 30%
17:00 +44°C° 0 mm 3 mps 700 mmHg 28%
18:00 +43°C° 0 mm 3 mps 700 mmHg 31%
19:00 +43°C° 0 mm 3 mps 701 mmHg 34%
20:00 +42°C° 0 mm 4 mps 701 mmHg 36%
21:00 +41°C° 0 mm 4 mps 701 mmHg 39%
22:00 +40°C° 0 mm 3 mps 701 mmHg 42%
23:00 +39°C° 0 mm 3 mps 701 mmHg 44%

9 August, Sunday

Time Temperature Precipitation Wind Pressure Humidity
00:00 +38°C° 0 mm 3 mps 701 mmHg 46%
01:00 +38°C° 0 mm 2 mps 701 mmHg 49%
02:00 +37°C° 0 mm 2 mps 701 mmHg 51%
03:00 +37°C° 0 mm 2 mps 701 mmHg 52%
04:00 +36°C° 0 mm 1 mps 700 mmHg 54%
05:00 +35°C° 0 mm 1 mps 700 mmHg 55%
06:00 +36°C° 0 mm 1 mps 701 mmHg 54%
07:00 +36°C° 0 mm 1 mps 701 mmHg 52%
08:00 +36°C° 0 mm 1 mps 701 mmHg 50%
09:00 +37°C° 0 mm 1 mps 701 mmHg 46%
10:00 +39°C° 0 mm 1 mps 700 mmHg 42%
11:00 +40°C° 0 mm 2 mps 700 mmHg 38%
12:00 +42°C° 0 mm 2 mps 700 mmHg 34%
13:00 +43°C° 0 mm 2 mps 700 mmHg 30%
14:00 +45°C° 0 mm 3 mps 699 mmHg 26%
15:00 +45°C° 0 mm 3 mps 699 mmHg 25%
16:00 +45°C° 0 mm 3 mps 699 mmHg 25%
17:00 +47°C° 0 mm 4 mps 699 mmHg 24%
18:00 +45°C° 0 mm 4 mps 699 mmHg 28%
19:00 +44°C° 0 mm 4 mps 699 mmHg 31%
20:00 +43°C° 0 mm 4 mps 700 mmHg 34%
21:00 +42°C° 0 mm 4 mps 700 mmHg 37%
22:00 +42°C° 0 mm 4 mps 700 mmHg 39%
23:00 +40°C° 0 mm 3 mps 700 mmHg 41%
Show more